Weather in Novokurovka

Russia / Khabarovsk Krai     48°51′01″N   134°18′39″E
temp.,
°C
wind,
m/s
gust,
m/s
humid.,
%
clouds,
%
prec.,
mm/h
press.,
hPa
HPBL,
m
27 february, sat
sat2701:00−18wsw33870 0.0 103327
04:00−19sw34910 0.0 103347
07:00−20ssw339315 0.0 103436
10:00−18ssw36938 0.0 1033208
13:00−15ssw358867 0.0 1032336
16:00−13sse358883 0.0 1028376
19:00−14e2392100 0.0 102447
22:00−14e2294100 0.0 102243
28 february, sun
sun2801:00−12se2496100 0.5 1019127
04:00−9sw3896100 2.4 1017331
07:00−11w3795100 0.2 1017224
10:00−12w589093 0.2 1018265
13:00−8w588585 0.0 1020511
16:00−8wnw6106892 0.0 1021783
19:00−12wnw51271100 0.0 1024319
22:00−15wnw6137576 0.0 1026410
1 march, mon
mon101:00−18wnw614760 0.0 1027429
04:00−20w512800 0.0 1028319
07:00−21w611790 0.0 1030254
10:00−19w713710 0.0 1032743
13:00−15w711630 0.0 10321205
16:00−13wnw610653 0.0 10311592
19:00−17w357980 0.0 103268
22:00−20wsw348254 0.0 103249
2 march, tue
tue201:00−21wnw33858 0.0 103228
04:00−22wnw35824 0.0 103277
07:00−23wnw35790 0.0 103360
10:00−21w46820 0.0 1033197
13:00−16wnw58670 0.0 1032897
16:00−15wsw45710 0.0 1030603
19:00−20sw33810 0.0 103125
22:00−21sw23850 0.0 103120
3 march, wed
wed301:00−22wsw23860 0.0 103020
04:00−23sw23860 0.0 103020
07:00−24ssw23860 0.0 102920
10:00−21s248812 0.0 1028151
13:00−17sse247960 0.0 1025366
16:00−14se237980 0.0 1021429
19:00−17ene2290100 0.0 101922
22:00−16ese1197100 0.1 101821